sat.trackr.live / text

‹ back to catalog

STARLINK-11355 [DTC]

NORAD 62415 · 2024-249G

PAYLOAD ACTIVE UNKNOWN

§ Identity

Operator
Country
US
Launch date
2024-12-23
Launch site
AFETR
Launch vehicle
Mass (kg)
RCS (m²)

Purposes: comms

External: N2YO · Heavens-Above · Gunter

§ Orbital elements

Epoch: 2026-05-25T01:22:35.827968Z

Period
91.67 min
Inclination
42.9994°
Eccentricity
0.0002166
Mean motion
15.70846554 rev/d
Perigee alt
355.0 km
Apogee alt
357.9 km
Semi-major
6,734.6 km
B*
1.3077e-3
RAAN
67.1136°
Arg perigee
250.0069°
Mean anomaly
110.0566°
Rev number
8,149

§ Raw data

STARLINK-11355 [DTC]1 62415U 24249G   26145.05735912  .00170895  00000+0  13077-2 0  99982 62415  42.9994  67.1136 0002166 250.0069 110.0566 15.70846554 81494

JSON: /api/v1/satellites/62415 · /tle

For live sub-satellite position, see the globe view (requires WebGL).

§ Visibility from observer

Set your observer location to see the next 7 days of passes ≥ 10°. The values pass through the URL so the page stays shareable.

No JS? Fill the form by hand. The geolocation button needs JavaScript.